7 * 24
多渠道服务支持
STARLINK-32551 是由 SpaceX 发射的星链(Starlink)卫星之一,属于其低轨卫星互联网星座计划的一部分。该卫星旨在为全球用户提供高速、低延迟的互联网服务,尤其覆盖传统网络难以到达的地区。它运行在约 550 公里的轨道高度,配备先进通信设备,支持 Ku 和 Ka 频段。作为星链计划的扩展,STARLINK-32551 有助于提升网络容量和稳定性,推动全球互联网普及。
美国
(US)
| 数据来源 | 国际轨道数据 |
| 星历时间: | 2025-12-19T18:09:34+0800 1天前 查看轨道信息 |
| 半长轴: | 6950.199km |
| 偏心率: | 0.0003689 |
| 轨道倾角: | 70.002° |
| 近地点辐角 | 279.891° |
| 升交点赤经 | 6.769° |
| 平近点角 | 80.183° |
| 近地点: | 569.498km |
| 远地点: | 574.626km |
| 周期: | 96.107分钟 |
| 每日圈数: | 14.983282 |